GFSCGP_925_thetae_171.txt.gz
Theta_e
322 324 323 322 323 317 321 322 324 323 322 322 324 322 322 321 319 320 319 320 321 322 321 322 327 330 336 339 338 336 338 335 335 330 328 328 326 326 326 322 317 314 313 314
324 323 321 321 323 323 323 324 325 323 320 321 323 323 323 319 319 317 319 322 323 324 324 323 325 331 333 332 332 333 331 325 325 328 325 325 322 318 322 318 315 313 313 311
324 323 320 322 323 325 325 325 325 326 321 320 321 323 321 319 317 317 321 321 323 323 324 323 320 322 325 327 327 325 323 323 324 325 324 322 320 318 316 317 317 314 312 310
323 320 323 324 324 324 326 323 325 323 323 326 320 327 323 320 318 318 322 323 324 323 323 320 319 321 321 321 324 323 323 324 324 326 326 325 324 322 320 319 318 314 312 310
324 321 323 325 325 323 326 320 322 322 323 323 323 325 324 319 320 318 320 321 322 322 322 321 318 319 320 322 322 323 323 325 326 326 325 324 323 320 319 317 316 316 314 312
321 317 319 322 318 322 319 319 317 317 321 326 324 325 324 321 320 317 318 319 320 322 322 321 320 320 321 321 323 324 326 325 325 324 325 322 317 319 317 315 314 313 312 311
321 320 321 318 320 318 320 321 326 326 326 328 319 322 324 319 318 316 317 318 319 321 322 323 323 322 322 323 324 324 324 324 323 322 321 320 320 317 315 315 314 313 312 311
325 326 321 320 322 321 320 322 328 331 327 324 319 324 322 318 317 316 315 316 317 319 320 322 322 322 322 322 323 324 324 324 324 323 322 320 318 316 316 315 314 313 312 311
325 324 319 319 320 320 319 320 320 322 318 325 322 320 319 314 315 314 315 315 316 317 316 317 318 319 320 321 322 322 322 322 322 321 320 319 318 317 316 315 314 313 312 311
322 325 317 319 319 320 319 318 323 323 329 329 324 322 324 317 317 313 313 314 314 312 313 313 313 315 317 318 319 320 320 320 320 319 318 317 317 316 315 314 313 313 311 310
318 318 316 318 322 324 320 320 320 322 324 328 325 324 319 319 316 314 311 310 312 312 312 311 311 310 312 315 317 318 319 319 318 316 315 315 315 314 314 313 312 311 310 309
318 319 320 317 313 315 322 322 322 328 324 322 322 325 313 317 314 311 310 308 307 309 311 309 308 308 309 311 313 314 315 315 314 313 312 312 312 311 311 311 311 310 310 310
321 324 324 322 317 313 318 319 321 322 320 324 328 325 309 313 311 311 311 308 308 308 307 306 305 305 306 307 309 312 312 312 311 310 310 310 309 309 308 308 308 308 307 307
321 320 326 327 322 319 317 316 319 322 325 325 323 322 312 312 312 311 309 309 307 307 307 307 306 306 304 303 306 310 309 308 308 308 308 307 307 307 306 306 306 306 305 305
320 324 318 315 311 311 314 317 316 321 323 325 323 320 313 313 312 310 309 307 305 306 306 306 304 304 303 304 307 307 306 305 305 305 304 304 304 304 304 304 303 303 303 303
310 318 310 315 309 309 312 310 314 318 320 320 317 320 313 312 311 310 307 305 305 305 304 305 306 306 305 305 305 303 303 303 304 303 303 303 303 303 302 301 300 300 299 299
314 313 313 321 309 308 313 312 311 315 314 318 319 319 310 311 311 309 307 304 305 306 306 307 307 305 303 303 302 302 302 303 303 303 303 302 301 301 300 298 297 297 296 295
311 318 317 320 310 317 317 306 312 313 313 310 311 308 309 310 310 306 304 305 306 306 307 306 305 303 301 301 301 301 301 301 301 301 300 300 300 298 297 296 296 296 294 293
310 314 315 317 316 317 314 306 307 308 311 307 308 305 305 304 306 307 307 306 307 307 306 304 303 302 300 298 298 297 297 298 298 297 299 298 298 298 297 296 295 294 292 291
310 311 316 311 318 319 314 304 304 304 311 305 306 305 307 308 308 310 307 305 305 304 303 303 301 300 299 298 296 295 294 294 295 295 296 296 296 296 295 294 293 292 290 290
311 310 315 314 314 312 308 300 304 311 312 303 304 304 308 309 308 305 305 305 304 303 302 301 300 300 299 297 296 293 292 293 293 293 294 295 294 294 293 292 290 290 289 289
311 311 311 308 311 315 302 300 306 308 301 304 303 305 307 306 304 304 305 302 302 301 300 299 299 298 297 296 295 292 292 293 292 292 293 291 291 290 291 290 289 288 288 287
311 310 310 308 309 301 300 300 300 300 303 304 304 303 305 304 303 303 302 298 297 299 300 299 298 298 296 295 295 294 293 292 292 291 291 291 290 289 289 289 288 287 286 285
300 299 304 303 299 299 299 299 299 298 300 301 302 302 302 302 298 296 295 297 297 298 298 299 298 298 297 295 295 294 293 292 292 291 290 289 289 288 287 287 287 285 285 284
299 299 299 299 298 298 297 298 298 299 300 300 299 300 301 299 299 300 299 299 297 297 298 298 297 297 297 295 294 293 293 291 291 290 289 288 288 287 286 285 285 284 284 284
296 298 301 301 299 299 298 298 297 298 298 297 296 295 296 297 296 296 297 298 299 299 298 297 296 296 295 294 293 292 291 290 290 289 287 287 286 286 285 285 283 284 283 283

GFSCGP_925_thetae_177.txt.gz
Theta_e
322 325 328 327 328 327 328 328 327 327 327 327 328 329 329 329 328 328 328 327 328 328 329 332 335 340 344 346 345 341 337 336 335 331 330 327 326 325 324 324 322 322 320 316
326 327 326 327 327 328 328 328 328 328 328 328 329 329 329 328 328 327 327 328 327 329 332 333 333 334 336 337 336 336 335 332 331 332 329 327 325 325 322 319 319 321 315 314
328 327 327 327 327 328 329 329 330 330 329 328 329 330 329 328 327 326 327 327 328 330 333 333 332 333 332 332 328 330 329 329 329 330 328 327 325 321 318 316 317 317 317 314
328 327 327 328 328 328 331 329 329 329 330 332 329 332 329 329 327 327 328 329 329 330 332 333 333 332 330 328 326 326 327 328 330 330 330 329 328 324 318 319 320 318 315 312
328 327 328 329 328 328 330 329 329 329 330 331 331 331 329 329 328 327 328 329 329 330 332 333 333 332 330 328 328 325 327 329 329 331 331 330 330 326 324 324 321 318 314 313
327 325 326 327 326 327 327 328 328 329 331 335 331 330 328 328 328 326 327 328 328 329 331 333 332 332 331 330 331 329 329 329 331 331 331 330 329 327 326 325 323 321 319 316
326 325 325 326 328 327 328 330 334 333 333 332 328 329 329 328 326 326 326 326 327 328 330 331 332 333 332 331 331 330 331 331 330 329 329 328 326 324 323 322 321 319 319 318
328 330 326 325 327 329 329 330 331 333 332 329 328 329 327 327 325 325 324 325 325 327 327 327 328 329 331 331 331 330 329 328 328 328 326 325 325 323 321 322 320 320 319 318
328 328 326 325 325 327 329 332 328 330 330 334 331 328 327 326 325 324 323 323 324 325 324 324 325 325 326 327 327 326 324 322 323 324 325 324 324 323 321 321 321 320 319 318
326 329 326 326 325 325 327 327 332 334 335 336 328 327 327 327 327 323 323 323 323 323 323 322 322 322 323 323 323 324 323 322 322 322 322 322 322 321 321 321 321 320 319 319
325 328 328 327 326 327 326 328 328 329 330 332 331 329 329 328 327 325 324 322 322 322 322 322 321 320 320 320 321 324 324 323 322 322 322 321 321 320 320 319 319 319 319 318
326 329 330 328 325 325 326 327 328 335 333 334 336 336 325 326 327 325 324 322 322 321 321 320 320 319 319 319 319 320 321 321 322 322 321 321 320 319 319 318 318 317 316 315
326 330 332 328 324 325 328 327 327 327 330 334 340 333 326 325 326 325 324 322 321 321 320 319 318 316 316 316 316 316 316 318 319 321 320 320 319 318 318 316 315 314 313 313
325 328 330 330 327 325 327 327 328 328 335 332 334 330 328 325 324 324 324 322 321 320 319 319 317 316 314 313 313 312 312 314 316 318 318 319 318 316 315 313 312 311 310 310
327 331 329 327 325 324 325 325 327 328 329 332 330 328 326 326 326 325 324 323 321 319 318 319 318 316 314 313 312 311 312 315 316 316 317 316 315 313 312 310 310 309 309 309
327 331 330 331 327 326 326 325 324 324 326 327 327 327 325 325 325 324 324 322 320 318 317 317 316 316 314 312 311 312 313 313 313 314 313 312 311 309 309 309 309 308 307 306
328 329 328 328 325 327 330 327 324 324 323 324 329 326 324 324 324 324 323 322 320 318 317 317 316 314 312 311 311 312 312 311 311 311 310 309 309 309 308 307 305 304 303 303
325 325 327 327 326 330 326 323 323 324 323 323 322 322 322 322 322 322 323 322 321 319 318 316 313 312 311 311 312 311 310 310 310 310 308 307 306 305 304 302 300 298 297 297
324 326 323 327 326 323 324 322 322 322 323 322 322 322 321 321 321 321 321 320 320 319 316 312 311 312 312 311 310 308 306 304 302 300 300 300 300 300 299 298 297 296 295 294
321 323 326 322 328 327 324 321 320 319 323 319 319 319 320 320 325 321 319 318 314 314 312 312 312 311 310 307 306 299 297 298 298 298 298 298 298 297 296 295 294 293 293 293
320 318 322 322 324 323 320 315 316 321 320 318 317 318 318 319 319 317 316 313 312 312 312 311 310 309 308 306 304 298 296 296 296 296 295 295 295 295 294 293 292 291 292 291
319 320 321 322 323 326 318 316 318 318 317 314 313 314 315 315 314 313 313 312 312 311 310 309 308 308 306 304 300 296 295 296 294 295 294 294 293 292 292 291 290 290 290 289
324 321 322 320 321 318 317 318 315 312 314 311 311 311 311 313 312 310 311 312 314 309 308 308 308 307 305 303 302 300 297 294 294 294 294 293 292 292 291 290 289 289 290 289
317 318 319 319 318 314 315 310 312 308 310 308 308 308 309 313 309 301 305 309 310 309 308 307 307 306 305 304 304 304 301 296 294 293 293 292 291 290 290 290 290 292 291 290
316 315 316 318 315 311 311 308 308 306 306 306 306 306 308 308 308 307 308 309 309 308 307 307 306 306 306 305 303 302 300 295 293 293 292 291 291 290 290 291 291 290 289 289
312 313 314 316 313 310 310 307 306 306 305 305 305 305 305 306 306 306 306 306 306 306 305 305 305 305 303 303 302 301 299 295 294 292 291 291 291 289 290 290 288 287 287 286

GFSCGP_925_thetae_180.txt.gz
Theta_e
319 320 322 323 325 325 325 326 328 328 326 327 329 328 328 329 329 329 329 328 328 329 331 335 337 343 348 349 347 344 342 339 339 336 334 331 331 330 330 327 325 322 320 318
321 323 321 323 325 326 327 328 329 327 326 327 328 329 328 328 329 329 329 329 329 329 333 334 335 337 339 338 339 336 334 335 337 335 331 330 328 327 327 324 322 321 318 316
321 323 323 324 325 328 328 329 329 328 328 329 329 330 329 329 328 328 328 328 328 329 334 335 334 335 335 333 331 331 333 333 333 332 330 329 327 325 322 320 320 316 316 316
321 321 324 326 326 328 330 327 328 329 330 331 329 333 330 330 329 328 328 328 329 332 333 334 334 333 331 330 329 330 330 331 331 331 330 328 327 324 321 319 318 319 317 315
324 324 326 329 328 327 329 329 330 330 331 332 330 331 330 329 329 328 328 329 330 332 333 335 334 333 331 329 327 327 328 330 330 331 331 330 330 326 321 322 321 319 316 314
326 326 326 328 327 327 328 329 329 330 331 336 331 332 331 330 330 328 329 330 330 331 333 334 334 332 331 330 329 327 327 329 330 332 332 331 330 328 326 324 322 319 317 316
325 326 326 327 328 327 328 331 335 334 335 335 329 330 331 328 328 329 329 330 329 330 333 334 334 333 332 331 330 329 330 330 332 331 331 330 330 326 327 325 324 322 320 318
327 328 327 326 327 329 330 331 335 333 336 332 328 330 328 329 327 328 328 329 328 330 331 332 333 333 333 332 331 331 331 332 332 331 329 328 327 325 324 323 322 321 320 319
326 325 324 325 325 328 330 332 329 333 333 337 331 329 328 329 328 328 327 327 327 329 330 330 331 333 333 332 332 332 330 328 328 328 327 325 325 324 323 322 322 321 320 319
323 326 324 325 326 326 329 329 334 334 338 337 331 330 330 330 327 326 326 327 326 327 327 327 328 330 331 331 331 330 327 324 324 324 325 325 325 324 322 321 322 321 320 319
323 327 328 328 328 328 328 329 331 332 333 334 333 331 331 330 327 326 325 325 325 325 325 325 325 326 327 327 327 326 324 323 323 322 323 322 323 322 321 321 321 320 320 320
324 327 330 329 327 327 328 329 331 334 334 333 334 334 330 330 328 327 324 324 324 324 324 323 323 323 323 324 324 324 324 322 321 321 322 322 322 321 321 320 319 319 319 318
325 329 335 333 331 328 328 328 328 330 330 334 337 332 328 328 328 327 326 324 323 323 323 322 322 322 322 322 322 323 323 322 321 321 322 322 321 321 320 319 318 317 317 315
325 330 334 337 332 329 330 328 327 329 332 332 332 332 330 327 327 327 326 325 323 323 322 321 321 321 320 320 320 320 320 319 318 318 320 321 321 320 319 318 316 314 313 312
327 331 331 331 328 327 328 327 328 329 330 332 330 330 329 329 327 326 326 325 324 322 321 321 321 320 317 317 316 315 313 313 316 316 317 318 319 318 315 314 312 311 310 310
328 331 331 332 329 326 327 326 327 328 328 328 329 329 327 327 326 327 325 325 325 323 321 321 320 319 317 316 314 312 312 316 316 316 317 317 316 314 312 311 310 310 309 307
328 330 331 335 330 330 333 330 326 326 326 328 329 329 327 326 326 325 325 325 325 324 322 320 319 318 318 313 312 313 314 313 313 314 314 313 311 310 310 309 308 306 305 304
328 328 325 328 326 331 324 321 323 324 324 325 324 324 324 324 325 324 322 324 324 322 322 319 317 316 313 312 312 312 312 312 312 312 311 310 309 308 307 306 304 303 301 299
325 324 321 326 327 326 321 320 322 324 326 324 324 324 323 322 322 323 322 321 323 322 322 316 314 313 313 313 312 311 310 310 310 309 307 306 306 305 304 301 299 297 296 294
324 324 323 322 328 328 322 319 320 322 325 322 322 322 322 321 323 323 322 320 318 316 314 315 314 313 312 311 310 309 307 306 304 303 301 300 300 299 298 296 295 294 292 291
322 324 324 321 327 324 319 319 320 325 324 321 320 320 321 321 320 318 316 315 315 314 314 313 312 312 310 308 307 302 302 300 299 298 298 297 296 295 294 293 292 290 290 290
322 321 323 323 324 325 319 318 321 323 319 318 316 317 317 317 316 316 314 314 313 313 313 312 311 310 308 306 304 298 297 297 296 296 296 294 294 293 292 291 289 289 289 289
324 323 324 323 323 321 320 319 318 318 316 316 315 314 314 315 314 314 314 313 312 312 311 310 310 309 307 306 302 298 297 296 295 295 293 293 293 293 291 290 289 289 289 289
320 319 322 320 320 319 319 317 316 312 315 312 312 311 314 310 304 303 305 311 311 310 309 309 309 309 307 305 303 302 298 295 294 294 292 293 292 291 291 291 290 291 290 290
320 319 320 320 319 318 315 313 313 310 311 310 309 310 311 311 310 310 311 310 310 310 308 308 308 308 307 305 304 302 299 296 293 293 292 291 291 290 290 291 291 291 290 289
317 318 319 320 319 318 313 312 309 308 307 307 307 307 308 307 307 307 308 308 309 309 308 307 307 306 306 306 305 302 299 295 293 293 291 291 291 290 291 290 288 289 288 288

GFSCGP_925_thetae_183.txt.gz
Theta_e
315 315 317 319 321 323 323 322 321 323 325 325 322 322 324 325 324 322 322 323 322 330 333 336 340 348 347 346 345 343 343 341 340 338 337 336 335 333 333 333 331 328 323 321
317 317 316 319 320 322 322 322 322 324 325 324 322 323 323 325 324 323 322 323 322 332 333 334 335 340 342 341 342 342 342 339 339 338 336 336 334 332 329 327 323 322 320 318
319 319 318 319 319 322 323 324 326 327 325 325 327 326 327 325 324 324 323 323 323 332 333 333 334 335 336 337 337 336 335 335 336 337 336 333 330 327 326 324 323 322 318 317
319 319 319 320 321 322 325 327 327 327 326 328 327 330 326 325 324 325 324 322 327 332 332 332 332 332 332 331 332 333 332 332 334 335 334 331 328 325 324 323 321 318 317 318
321 319 319 319 322 322 324 327 329 330 329 329 330 329 326 325 327 324 323 323 329 331 331 331 330 331 329 329 329 331 329 332 332 332 332 329 327 327 325 321 319 319 318 316
319 320 318 319 326 324 325 328 328 329 329 332 329 329 326 325 326 325 324 325 329 331 331 331 332 331 329 329 329 329 330 331 331 331 330 329 328 326 322 320 320 319 317 314
324 323 321 323 325 326 326 328 333 334 332 333 329 330 328 326 325 325 326 327 330 331 332 332 330 329 329 329 328 328 329 330 331 331 331 331 329 327 324 323 321 319 318 317
326 326 323 324 326 327 326 329 332 335 332 328 326 329 326 326 326 325 326 327 328 331 331 331 330 329 329 330 328 329 329 331 331 332 332 330 329 328 326 325 323 322 320 319
324 325 322 325 325 326 328 330 327 331 330 326 329 327 326 327 326 326 327 327 328 330 330 331 330 330 330 330 329 330 330 330 331 331 330 330 328 325 325 324 323 322 321 319
321 324 322 324 324 325 326 326 331 330 334 333 330 328 327 327 327 327 327 326 327 328 328 328 331 331 331 330 330 330 330 331 331 330 328 327 326 324 323 323 322 322 319 320
320 322 324 323 326 326 326 329 330 329 330 330 329 327 324 325 325 326 326 325 326 326 325 325 329 331 331 331 330 331 331 329 327 327 326 325 324 324 323 321 321 321 320 319
322 323 324 323 323 323 324 327 328 332 332 329 328 328 326 326 324 324 323 323 321 321 320 320 322 327 329 330 331 331 327 325 325 324 324 324 324 323 322 321 321 321 320 319
322 324 326 325 324 324 326 326 326 327 328 331 332 330 325 325 323 322 320 321 321 320 319 318 318 321 324 326 328 327 325 323 322 323 322 322 322 321 321 320 319 319 318 318
322 323 322 322 323 326 328 327 326 327 330 330 330 328 326 326 325 323 320 320 320 320 321 319 318 318 321 322 324 324 324 323 321 321 322 322 321 321 320 319 318 317 317 314
323 325 323 321 322 325 325 327 327 328 327 329 328 328 326 325 323 323 321 320 320 320 320 319 318 316 318 320 321 322 323 322 321 319 320 321 320 320 318 316 314 312 311 310
327 329 326 328 325 329 330 326 326 327 326 326 326 326 324 324 322 322 322 321 321 320 320 319 317 317 316 318 318 318 318 316 316 316 317 317 315 313 312 311 310 310 309 309
328 330 329 331 328 331 332 328 328 327 325 325 327 325 323 324 324 323 323 323 322 322 320 318 318 316 314 314 312 314 315 315 315 315 315 314 313 310 310 310 309 308 307 306
328 328 326 329 328 334 329 325 325 326 324 324 324 323 323 323 323 322 319 319 320 319 320 318 315 312 312 313 313 312 312 312 312 311 311 310 310 309 309 308 307 305 303 301
326 321 319 328 331 326 323 322 326 325 324 321 321 321 321 320 320 318 318 319 320 319 317 313 312 312 311 311 311 311 311 311 311 309 309 309 309 308 307 306 304 301 297 295
322 320 321 321 327 330 318 318 318 320 318 319 320 320 319 318 320 318 316 315 314 313 312 312 311 311 310 310 311 311 310 311 311 311 310 309 308 307 304 299 297 295 293 292
323 318 321 320 324 319 319 318 319 322 318 318 318 318 317 316 315 314 313 313 313 312 312 312 311 311 310 311 310 308 309 309 308 307 305 302 301 299 298 295 293 292 292 291
321 320 319 317 323 320 317 317 320 318 316 314 314 316 316 315 314 313 312 312 311 311 311 310 309 308 308 308 307 303 300 299 299 300 298 297 296 294 292 292 291 291 291 290
323 320 321 321 320 317 317 316 316 315 314 313 311 314 314 313 313 312 310 309 308 310 309 309 307 306 306 306 303 298 296 297 296 295 293 293 292 291 291 291 290 290 289 289
320 319 318 318 318 318 317 314 314 313 312 311 310 313 311 308 305 303 301 307 307 308 308 308 307 306 304 304 301 299 297 296 294 293 291 291 291 291 291 290 290 290 289 289
317 319 319 318 317 316 313 313 310 311 309 310 311 310 307 307 308 309 309 308 307 307 308 308 307 306 305 304 301 300 298 297 294 293 292 291 290 290 290 290 290 290 290 290
316 316 318 317 316 315 312 309 308 307 307 307 309 309 308 307 308 309 307 307 308 307 307 307 307 306 305 304 303 303 301 298 294 292 292 291 291 291 290 290 290 289 289 289

GFSCGP_925_thetae_186.txt.gz
Theta_e
315 314 316 317 318 318 318 321 321 319 322 322 318 318 318 320 320 320 319 318 320 332 333 342 342 341 342 342 343 343 343 341 340 339 337 336 336 335 334 334 333 332 329 325
316 316 314 316 318 320 320 321 320 318 320 322 321 319 318 320 322 320 319 318 327 333 333 336 341 342 340 339 339 339 339 339 339 339 337 336 335 333 333 331 330 327 322 321
317 317 315 315 317 319 319 320 320 321 324 323 325 323 324 324 323 323 320 321 331 334 333 333 334 338 341 338 337 338 339 339 338 338 336 334 332 330 327 325 325 322 320 318
317 317 317 316 316 318 319 319 321 325 326 325 323 325 323 323 323 323 321 319 331 332 333 331 330 332 337 338 339 340 339 339 338 336 335 335 333 328 326 327 325 321 318 318
317 318 317 317 318 317 319 322 325 328 328 328 328 328 325 324 324 323 321 320 328 332 332 331 329 331 333 334 335 336 335 335 334 335 334 332 331 329 327 326 322 318 318 319
316 317 318 315 317 318 319 327 327 326 327 331 328 329 325 324 324 323 322 326 331 332 330 330 329 330 330 330 331 331 331 330 330 331 331 332 331 328 326 323 319 319 319 316
318 316 315 318 319 317 324 326 331 331 332 332 327 329 328 323 323 322 323 328 331 331 330 330 329 327 329 328 329 329 329 329 330 331 331 331 329 328 326 322 321 320 318 315
320 324 318 318 319 322 324 327 331 333 331 328 326 329 326 324 323 322 323 326 330 331 331 331 328 327 327 328 328 328 329 330 330 332 331 330 329 327 325 323 322 321 319 318
320 321 321 321 323 320 326 328 325 328 327 323 326 324 323 324 323 323 323 327 330 331 331 330 328 327 327 328 327 328 329 330 332 331 331 331 330 328 326 325 323 321 320 319
321 322 321 322 324 323 325 325 330 327 332 330 326 326 324 326 325 324 326 328 330 330 330 329 328 327 328 328 328 329 330 331 332 330 331 330 330 327 326 325 324 322 321 320
319 319 321 323 325 326 326 327 328 327 328 327 326 326 323 323 324 326 326 326 329 330 330 330 328 328 328 329 328 329 330 331 330 330 330 330 329 325 324 324 324 322 322 322
321 321 323 323 323 324 326 327 327 330 329 328 323 324 323 322 323 325 325 325 324 328 328 328 329 329 328 328 328 328 329 329 330 330 330 329 326 325 323 322 323 320 320 319
322 323 320 321 321 320 325 326 326 326 325 329 330 327 323 323 322 322 322 321 322 322 321 327 329 329 329 328 328 328 329 330 330 330 327 326 324 324 323 322 321 321 320 319
320 322 321 320 321 322 325 325 325 327 330 328 329 327 325 324 323 320 321 321 321 323 322 322 326 328 328 328 328 328 329 329 329 326 325 324 323 322 322 320 319 318 317 315
321 323 322 321 317 322 323 325 325 326 327 330 328 327 325 323 323 321 320 320 321 322 321 319 320 324 326 326 327 328 328 322 322 324 323 322 321 320 319 318 316 314 313 312
320 322 322 322 321 320 321 324 324 325 325 326 325 325 323 322 322 321 320 319 321 321 320 320 319 318 319 323 325 325 324 323 321 321 321 320 318 316 314 312 310 310 310 309
322 323 327 325 321 324 325 322 323 325 325 325 327 325 321 323 323 322 320 320 319 319 318 318 318 317 318 320 322 321 320 319 318 317 314 313 312 311 309 309 308 307 307 305
327 326 325 328 327 330 326 323 320 322 324 324 325 322 322 322 322 320 318 318 318 317 317 317 317 314 314 314 314 315 316 315 314 312 312 311 310 309 308 308 307 307 305 302
321 327 321 328 329 328 326 324 327 326 325 323 323 322 322 322 318 318 317 317 317 317 316 312 312 311 311 312 312 312 311 312 311 309 309 309 309 308 308 306 306 302 300 298
321 323 325 318 329 332 322 321 323 324 329 319 318 321 319 316 318 316 316 315 313 312 312 311 310 310 310 309 310 310 308 309 309 310 308 307 307 306 306 302 302 299 297 295
327 324 324 320 325 324 318 318 321 328 325 317 318 317 316 318 317 314 313 312 311 311 310 310 310 309 308 309 310 307 308 309 308 307 308 307 305 304 302 300 296 294 292 291
320 320 320 318 324 327 316 318 323 319 315 316 317 317 315 314 313 313 312 311 310 310 310 309 309 308 308 309 308 306 304 303 303 301 301 300 298 297 296 295 291 291 290 290
321 319 318 319 319 317 316 316 315 313 313 313 316 315 314 313 313 312 310 309 309 309 309 308 307 305 305 305 305 301 297 300 300 298 295 294 294 293 291 291 290 289 290 289
319 317 318 320 320 320 318 317 315 313 312 311 314 313 313 311 308 305 304 308 309 308 307 306 306 304 301 303 303 302 297 297 296 293 292 292 292 292 291 291 290 290 290 289
317 319 318 317 317 317 317 316 312 310 310 312 312 311 310 309 309 309 309 308 308 307 307 306 305 304 302 301 299 298 295 295 293 291 291 291 291 291 291 291 290 290 290 290
316 318 319 318 315 315 316 313 311 311 311 311 310 308 309 309 309 309 308 307 306 306 307 306 305 304 302 301 299 297 296 295 294 291 291 291 291 290 290 290 290 290 290 290

GFSCGP_925_thetae_189.txt.gz
Theta_e
315 314 315 316 316 316 316 319 318 317 317 320 317 316 317 317 317 316 316 316 321 324 333 341 338 336 338 340 343 345 344 343 342 340 339 337 337 336 337 336 334 334 333 331
314 315 314 314 316 319 320 320 320 318 317 318 317 317 315 316 318 316 317 316 320 330 334 339 337 337 339 340 340 340 339 340 340 339 337 336 335 333 333 333 331 329 328 324
318 316 314 313 315 318 318 319 318 318 318 320 323 322 322 322 317 319 318 317 319 328 334 339 334 335 337 336 336 336 336 337 338 338 335 334 332 329 327 327 326 325 322 320
317 316 315 314 313 314 314 316 318 318 320 322 320 323 319 320 321 321 320 317 319 327 333 338 336 333 332 333 334 334 334 337 337 336 335 335 333 329 328 326 326 323 320 320
319 316 317 316 315 314 313 316 318 318 321 326 326 326 323 321 321 322 321 317 319 327 331 334 334 334 333 334 333 335 337 337 337 336 335 334 333 330 328 326 325 324 321 318
318 314 315 316 315 314 315 325 325 324 325 330 325 325 323 322 323 322 320 318 317 327 330 330 330 331 332 333 334 336 336 336 336 336 334 334 332 329 327 325 323 321 319 318
317 317 314 315 313 316 316 324 329 330 331 330 325 327 325 321 321 321 321 319 321 329 330 329 327 328 328 329 330 333 334 333 334 332 332 332 331 330 329 328 323 320 319 319
319 320 317 314 314 315 318 319 326 332 330 323 325 328 324 322 321 320 319 319 327 330 330 329 328 327 327 327 329 331 331 331 331 330 330 332 331 329 328 325 324 321 321 319
318 317 316 316 317 317 317 323 320 325 324 322 323 322 321 320 321 321 320 323 328 329 330 329 327 326 326 327 327 329 329 330 329 330 331 331 331 328 327 325 322 322 320 319
318 317 317 316 316 319 322 319 327 325 328 329 323 324 323 323 322 321 320 322 326 329 330 329 327 326 326 326 327 328 329 330 329 329 331 331 330 329 328 325 323 322 320 319
316 316 317 319 318 317 320 324 326 325 325 325 322 322 320 320 322 321 321 322 324 329 330 329 327 326 326 326 327 328 329 329 330 330 331 330 330 329 329 327 325 323 321 320
317 318 319 321 319 318 321 321 326 328 327 326 320 323 320 319 319 321 321 322 322 327 329 328 327 326 326 326 326 327 328 329 330 331 330 330 330 329 328 326 325 324 323 322
318 321 322 322 321 320 320 322 322 325 322 327 326 327 321 321 321 320 322 321 322 326 328 328 327 327 326 326 326 326 327 328 330 331 330 329 329 329 326 324 323 323 321 320
319 320 320 320 320 321 323 323 324 324 328 326 326 325 323 322 322 320 320 320 321 326 327 328 328 328 327 327 326 327 327 328 329 329 329 329 329 326 324 322 320 319 319 318
320 321 320 319 316 318 322 323 325 326 326 328 325 323 323 321 321 320 318 319 321 324 327 328 328 328 327 327 327 327 327 328 329 328 328 328 326 323 320 319 317 314 313 312
319 321 321 320 319 318 319 320 323 325 326 326 325 324 321 321 320 321 318 319 321 323 324 324 327 327 327 327 326 326 326 327 328 327 324 323 320 317 315 313 311 310 308 307
319 322 321 324 320 320 323 320 318 322 323 324 326 325 321 322 322 320 319 317 319 321 321 320 322 324 326 327 326 326 324 323 322 320 317 317 315 312 310 308 307 307 307 307
321 320 320 324 322 327 322 319 319 318 319 322 323 321 322 322 321 321 317 318 317 318 319 319 319 318 323 324 325 324 321 318 316 313 311 310 310 308 308 309 307 306 306 306
322 322 322 326 326 326 325 322 321 321 320 318 321 322 321 320 319 318 317 317 317 316 315 315 316 315 315 317 319 318 314 313 311 308 309 310 310 309 308 306 305 305 305 303
321 321 321 318 327 330 323 322 321 321 325 319 318 319 319 318 323 321 314 315 315 314 312 309 311 312 312 312 314 312 308 307 305 309 310 309 308 307 306 305 305 304 301 296
324 321 321 320 323 323 319 318 322 328 326 322 320 318 318 320 322 317 312 312 310 310 309 309 309 308 308 309 308 304 304 304 308 308 308 307 306 306 305 305 302 296 293 290
324 321 321 318 322 325 316 318 327 323 314 316 319 317 318 316 314 313 311 310 309 309 308 308 307 306 306 306 306 302 299 302 304 303 302 302 303 301 301 299 293 291 290 290
323 319 319 320 319 316 315 315 314 313 313 315 315 314 314 313 313 312 311 309 308 309 308 307 306 304 305 305 306 298 294 297 299 301 300 298 296 298 295 292 290 290 290 291
318 317 317 319 318 319 318 316 314 312 312 314 313 313 313 311 307 303 305 308 308 307 307 306 305 304 301 302 301 298 297 299 300 297 293 292 293 291 291 291 291 290 290 290
316 317 318 317 316 317 318 317 314 311 313 313 312 311 311 310 310 309 309 308 307 307 307 306 305 302 299 300 297 297 297 298 295 292 291 291 291 291 290 290 290 290 290 290
315 314 318 319 315 317 317 316 312 312 313 313 311 310 310 311 310 310 309 308 307 306 306 305 303 301 298 299 296 295 297 297 295 291 291 291 290 290 290 289 289 290 290 290